�������l�o���
Date,Time,MP-1(��Sv/h),MP-2(��Sv/h),MP-3(��Sv/h),MP-4(��Sv/h),MP-5(��Sv/h),MP-6(��Sv/h),MP-7(��Sv/h),MP-8(��Sv/h),����,����(m/s),���J
2018/07/18,00:00,0.898,1.280,0.895,1.584,1.134,0.481,0.843,0.794,�k��,3.7,��
2018/07/18,00:10,0.898,1.282,0.894,1.583,1.134,0.481,0.838,0.793,�k��,4.2,��
2018/07/18,00:20,0.899,1.281,0.894,1.582,1.133,0.481,0.840,0.794,�k��,4.2,��
2018/07/18,00:30,0.898,1.279,0.893,1.585,1.135,0.480,0.840,0.793,�k��,3.5,��
2018/07/18,00:40,0.898,1.281,0.892,1.585,1.134,0.481,0.839,0.793,�k��,3.0,��
2018/07/18,00:50,0.896,1.280,0.893,1.581,1.134,0.479,0.841,0.792,�k��,2.6,��
2018/07/18,01:00,0.894,1.280,0.893,1.584,1.134,0.483,0.841,0.793,�k��,2.5,��
2018/07/18,01:10,0.896,1.277,0.893,1.586,1.135,0.481,0.840,0.790,�k�k��,1.9,��
2018/07/18,01:20,0.896,1.279,0.893,1.585,1.134,0.480,0.843,0.793,�k�k��,2.0,��
2018/07/18,01:30,0.895,1.278,0.890,1.583,1.136,0.481,0.841,0.794,�k��,3.0,��
2018/07/18,01:40,0.898,1.279,0.894,1.585,1.134,0.481,0.840,0.792,�k��,3.4,��
2018/07/18,01:50,0.896,1.278,0.894,1.587,1.132,0.480,0.840,0.795,���k��,2.5,��
2018/07/18,02:00,0.896,1.280,0.893,1.584,1.136,0.481,0.838,0.794,���k��,2.6,��
2018/07/18,02:10,0.896,1.279,0.894,1.584,1.134,0.481,0.839,0.793,���k��,2.2,��
2018/07/18,02:20,0.897,1.276,0.892,1.586,1.137,0.482,0.842,0.793,���k��,2.8,��
2018/07/18,02:30,0.897,1.279,0.894,1.584,1.135,0.481,0.842,0.795,���k��,2.8,��
2018/07/18,02:40,0.898,1.283,0.894,1.580,1.134,0.481,0.842,0.795,���k��,2.6,��
2018/07/18,02:50,0.896,1.281,0.894,1.585,1.134,0.482,0.841,0.795,���k��,2.5,��
2018/07/18,03:00,0.898,1.282,0.893,1.584,1.135,0.481,0.840,0.793,���k��,3.2,��
2018/07/18,03:10,0.895,1.280,0.893,1.583,1.136,0.482,0.839,0.794,��,2.6,��
2018/07/18,03:20,0.897,1.277,0.894,1.582,1.135,0.482,0.839,0.793,���쐼,2.3,��
2018/07/18,03:30,0.897,1.277,0.893,1.584,1.132,0.481,0.840,0.794,���쐼,3.0,��
2018/07/18,03:40,0.897,1.278,0.893,1.583,1.134,0.481,0.839,0.793,��,3.3,��
2018/07/18,03:50,0.896,1.277,0.894,1.583,1.134,0.482,0.842,0.795,���k��,3.4,��
2018/07/18,04:00,0.899,1.279,0.891,1.583,1.134,0.481,0.840,0.795,���k��,2.6,��
2018/07/18,04:10,0.896,1.280,0.893,1.584,1.136,0.482,0.841,0.794,���k��,2.0,��
2018/07/18,04:20,0.897,1.280,0.895,1.582,1.137,0.480,0.840,0.793,���k��,2.0,��
2018/07/18,04:30,0.896,1.278,0.892,1.584,1.134,0.480,0.840,0.795,���k��,2.2,��
2018/07/18,04:40,0.899,1.278,0.894,1.586,1.135,0.482,0.840,0.792,�k��,2.6,��
2018/07/18,04:50,0.898,1.279,0.893,1.586,1.133,0.481,0.840,0.792,���k��,2.9,��
2018/07/18,05:00,0.896,1.278,0.895,1.584,1.133,0.480,0.839,0.793,���k��,4.7,��
2018/07/18,05:10,0.897,1.279,0.892,1.582,1.131,0.481,0.841,0.792,���k��,6.0,��
2018/07/18,05:20,0.898,1.278,0.892,1.582,1.133,0.480,0.839,0.794,���k��,6.6,��
2018/07/18,05:30,0.897,1.281,0.892,1.583,1.131,0.479,0.841,0.793,���k��,5.4,��
2018/07/18,05:40,0.897,1.278,0.894,1.582,1.134,0.480,0.840,0.792,���k��,4.4,��
2018/07/18,05:50,0.899,1.280,0.893,1.583,1.132,0.480,0.839,0.794,���k��,3.7,��
2018/07/18,06:00,0.896,1.280,0.895,1.582,1.136,0.480,0.840,0.792,�k��,4.0,��
2018/07/18,06:10,0.895,1.280,0.893,1.584,1.135,0.480,0.841,0.794,�k��,2.5,��
2018/07/18,06:20,0.895,1.279,0.893,1.583,1.136,0.481,0.840,0.795,�k��,2.3,��
2018/07/18,06:30,0.897,1.279,0.895,1.582,1.133,0.481,0.842,0.794,�k��,2.3,��
2018/07/18,06:40,0.898,1.279,0.894,1.583,1.132,0.483,0.841,0.794,�k��,2.9,��
2018/07/18,06:50,0.899,1.278,0.893,1.586,1.134,0.481,0.843,0.794,�k��,3.7,��
2018/07/18,07:00,0.898,1.278,0.895,1.583,1.136,0.480,0.842,0.796,�k�k��,2.6,��
2018/07/18,07:10,0.898,1.279,0.894,1.586,1.134,0.482,0.841,0.795,�k��,2.3,��
2018/07/18,07:20,0.901,1.281,0.894,1.588,1.136,0.481,0.842,0.794,�k�k��,1.7,��
2018/07/18,07:30,0.897,1.282,0.892,1.584,1.133,0.482,0.841,0.794,�k��,2.2,��
2018/07/18,07:40,0.901,1.281,0.893,1.584,1.133,0.481,0.841,0.796,�k��,2.5,��
2018/07/18,07:50,0.899,1.281,0.891,1.586,1.138,0.481,0.841,0.796,���k��,2.6,��
2018/07/18,08:00,0.900,1.280,0.895,1.584,1.135,0.480,0.841,0.795,���쐼,1.1,��
2018/07/18,08:10,0.899,1.280,0.891,1.586,1.135,0.482,0.842,0.796,��,2.8,��
2018/07/18,08:20,0.900,1.283,0.895,1.585,1.135,0.481,0.842,0.794,���k��,3.9,��
2018/07/18,08:30,0.898,1.281,0.894,1.589,1.136,0.482,0.843,0.793,��,3.7,��
2018/07/18,08:40,0.899,1.281,0.892,1.590,1.134,0.481,0.843,0.792,��,3.1,��
2018/07/18,08:50,0.898,1.281,0.896,1.587,1.137,0.481,0.843,0.792,��,3.7,��
2018/07/18,09:00,0.899,1.285,0.893,1.587,1.135,0.481,0.844,0.795,���쐼,2.8,��
2018/07/18,09:10,0.901,1.284,0.894,1.590,1.133,0.480,0.844,0.792,��,1.2,��
2018/07/18,09:20,0.899,1.284,0.895,1.588,1.138,0.482,0.844,0.793,��,0.9,��
2018/07/18,09:30,0.899,1.289,0.895,1.590,1.138,0.480,0.844,0.794,�쓌,1.9,��
2018/07/18,09:40,0.901,1.289,0.896,1.591,1.143,0.482,0.842,0.792,��,2.0,��
2018/07/18,09:50,0.900,1.290,0.896,1.590,1.139,0.482,0.841,0.794,�쓌,2.5,��
2018/07/18,10:00,0.902,1.294,0.896,1.587,1.143,0.481,0.843,0.794,�쓌,3.4,��
2018/07/18,10:10,0.899,1.294,0.896,1.590,1.142,0.483,0.842,0.791,��,3.5,��
2018/07/18,10:20,0.901,1.294,0.897,1.591,1.143,0.484,0.842,0.795,��,4.1,��
2018/07/18,10:30,0.899,1.293,0.896,1.590,1.143,0.484,0.843,0.795,��,4.1,��
2018/07/18,10:40,0.899,1.292,0.898,1.586,1.142,0.479,0.841,0.793,��,3.7,��
2018/07/18,10:50,0.900,1.292,0.896,1.590,1.139,0.480,0.842,0.793,���쓌,3.5,��
2018/07/18,11:00,0.899,1.294,0.896,1.589,1.142,0.481,0.844,0.794,�쓌,2.9,��
2018/07/18,11:10,0.901,1.292,0.897,1.593,1.142,0.481,0.843,0.794,�쓌,2.8,��
2018/07/18,11:20,0.902,1.292,0.897,1.590,1.139,0.480,0.841,0.795,���쓌,3.0,��
2018/07/18,11:30,0.902,1.294,0.897,1.591,1.140,0.482,0.841,0.793,�쓌,2.6,��
2018/07/18,11:40,0.903,1.292,0.897,1.588,1.146,0.481,0.842,0.794,�쓌,3.1,��
2018/07/18,11:50,0.902,1.291,0.899,1.588,1.143,0.481,0.843,0.796,��쓌,3.4,��
2018/07/18,12:00,0.901,1.294,0.899,1.586,1.144,0.480,0.841,0.794,��쓌,3.7,��
2018/07/18,12:10,0.901,1.293,0.899,1.593,1.143,0.481,0.843,0.795,��쓌,4.5,��
2018/07/18,12:20,0.901,1.294,0.896,1.591,1.146,0.479,0.845,0.794,�쓌,3.5,��
2018/07/18,12:30,0.900,1.292,0.900,1.591,1.142,0.482,0.843,0.794,�쓌,4.1,��
2018/07/18,12:40,0.901,1.291,0.898,1.591,1.144,0.482,0.843,0.797,��쓌,5.1,��
2018/07/18,12:50,0.901,1.293,0.897,1.591,1.145,0.482,0.843,0.796,��쓌,5.0,��
2018/07/18,13:00,0.903,1.294,0.899,1.591,1.145,0.482,0.844,0.797,��쓌,4.2,��
2018/07/18,13:10,0.903,1.294,0.900,1.593,1.145,0.483,0.843,0.798,��쓌,4.3,��
2018/07/18,13:20,0.904,1.298,0.902,1.594,1.147,0.481,0.844,0.798,��쓌,4.5,��
2018/07/18,13:30,0.904,1.297,0.901,1.593,1.146,0.482,0.846,0.796,��쓌,5.3,��
2018/07/18,13:40,0.906,1.293,0.898,1.593,1.150,0.482,0.846,0.795,��쓌,4.3,��
2018/07/18,13:50,0.905,1.298,0.900,1.591,1.149,0.481,0.846,0.796,��쓌,6.4,��
2018/07/18,14:00,0.908,1.299,0.901,1.594,1.147,0.483,0.845,0.796,��쓌,5.6,��
2018/07/18,14:10,0.906,1.296,0.900,1.593,1.148,0.482,0.847,0.797,��쓌,5.8,��
2018/07/18,14:20,0.906,1.297,0.900,1.593,1.146,0.482,0.848,0.800,��쓌,6.5,��
2018/07/18,14:30,0.906,1.297,0.898,1.594,1.148,0.482,0.847,0.799,��쓌,6.1,��
2018/07/18,14:40,0.906,1.295,0.899,1.594,1.147,0.481,0.847,0.799,��쓌,6.1,��
2018/07/18,14:50,0.905,1.295,0.899,1.596,1.148,0.481,0.848,0.799,��쓌,6.3,��
2018/07/18,15:00,0.907,1.295,0.897,1.596,1.147,0.482,0.846,0.798,��,5.5,��
2018/07/18,15:10,0.906,1.298,0.897,1.595,1.146,0.480,0.846,0.796,��,5.3,��
2018/07/18,15:20,0.906,1.298,0.898,1.595,1.147,0.480,0.846,0.798,��쓌,5.2,��
2018/07/18,15:30,0.906,1.296,0.897,1.596,1.148,0.481,0.844,0.797,��,4.5,��
2018/07/18,15:40,0.906,1.299,0.898,1.595,1.149,0.481,0.844,0.799,��,4.9,��
2018/07/18,15:50,0.906,1.296,0.895,1.595,1.145,0.481,0.845,0.798,��,5.6,��
2018/07/18,16:00,0.907,1.298,0.898,1.597,1.149,0.480,0.845,0.797,��쓌,4.7,��
2018/07/18,16:10,0.907,1.299,0.897,1.599,1.146,0.480,0.844,0.795,��,4.5,��
2018/07/18,16:20,0.905,1.297,0.897,1.597,1.147,0.480,0.845,0.796,��,4.4,��
2018/07/18,16:30,0.905,1.298,0.897,1.596,1.144,0.479,0.845,0.795,��,5.6,��
2018/07/18,16:40,0.906,1.299,0.901,1.595,1.147,0.479,0.844,0.794,��,6.1,��
2018/07/18,16:50,0.908,1.298,0.901,1.598,1.149,0.480,0.844,0.795,��,5.4,��
2018/07/18,17:00,0.904,1.298,0.898,1.595,1.148,0.481,0.846,0.795,��,5.8,��
2018/07/18,17:10,0.905,1.301,0.900,1.598,1.149,0.480,0.845,0.795,��,7.1,��
2018/07/18,17:20,0.907,1.299,0.900,1.599,1.147,0.481,0.846,0.795,��,7.5,��
2018/07/18,17:30,0.905,1.300,0.902,1.598,1.149,0.480,0.844,0.796,��,7.1,��
2018/07/18,17:40,0.905,1.300,0.901,1.600,1.150,0.479,0.845,0.799,��,6.7,��
2018/07/18,17:50,0.906,1.298,0.901,1.599,1.146,0.484,0.844,0.798,��,6.2,��
2018/07/18,18:00,0.905,1.300,0.901,1.599,1.146,0.482,0.846,0.795,��,6.3,��
2018/07/18,18:10,0.906,1.298,0.899,1.599,1.149,0.480,0.845,0.795,��,6.1,��
2018/07/18,18:20,0.904,1.300,0.900,1.598,1.147,0.480,0.845,0.796,��,5.7,��
2018/07/18,18:30,0.905,1.297,0.900,1.597,1.147,0.480,0.845,0.795,��,4.9,��
2018/07/18,18:40,0.906,1.296,0.901,1.598,1.146,0.480,0.845,0.796,��,5.5,��
2018/07/18,18:50,0.905,1.297,0.900,1.598,1.146,0.478,0.843,0.797,��,5.0,��
2018/07/18,19:00,0.906,1.295,0.898,1.599,1.145,0.482,0.844,0.796,��,6.1,��
2018/07/18,19:10,0.904,1.298,0.898,1.597,1.148,0.481,0.845,0.796,��,5.7,��
2018/07/18,19:20,0.904,1.298,0.897,1.597,1.144,0.481,0.844,0.796,��,5.7,��
2018/07/18,19:30,0.905,1.297,0.898,1.595,1.143,0.480,0.846,0.796,��,6.0,��
2018/07/18,19:40,0.903,1.297,0.900,1.596,1.144,0.482,0.845,0.796,��,5.9,��
2018/07/18,19:50,0.902,1.299,0.900,1.596,1.146,0.480,0.844,0.796,��쐼,5.8,��
2018/07/18,20:00,0.903,1.297,0.899,1.594,1.144,0.482,0.844,0.795,��,6.1,��
2018/07/18,20:10,0.904,1.298,0.898,1.599,1.146,0.480,0.845,0.797,��,6.3,��
2018/07/18,20:20,0.903,1.297,0.900,1.597,1.147,0.480,0.846,0.796,��,5.7,��
2018/07/18,20:30,0.906,1.298,0.897,1.596,1.147,0.480,0.844,0.796,��쐼,4.3,��
2018/07/18,20:40,0.903,1.298,0.898,1.597,1.147,0.481,0.844,0.795,��쐼,4.4,��
2018/07/18,20:50,0.902,1.298,0.900,1.600,1.147,0.480,0.846,0.796,��쐼,3.8,��
2018/07/18,21:00,0.905,1.300,0.899,1.598,1.146,0.484,0.846,0.797,�쐼,3.7,��
2018/07/18,21:10,0.906,1.301,0.900,1.597,1.147,0.482,0.845,0.798,�쐼,3.8,��
2018/07/18,21:20,0.904,1.299,0.902,1.599,1.147,0.483,0.844,0.798,�쐼,3.5,��
2018/07/18,21:30,0.905,1.300,0.901,1.599,1.147,0.484,0.845,0.797,���쐼,3.4,��
2018/07/18,21:40,0.904,1.299,0.901,1.599,1.148,0.484,0.845,0.796,��,1.7,��
2018/07/18,21:50,0.903,1.299,0.901,1.600,1.146,0.483,0.845,0.797,�k��,1.7,��
2018/07/18,22:00,0.905,1.302,0.900,1.597,1.145,0.482,0.846,0.797,�k��,1.1,��
2018/07/18,22:10,0.907,1.298,0.900,1.596,1.146,0.482,0.845,0.796,�k�k��,0.9,��
2018/07/18,22:20,0.905,1.301,0.901,1.597,1.149,0.485,0.844,0.796,�k��,1.2,��
2018/07/18,22:30,0.904,1.299,0.903,1.597,1.147,0.483,0.843,0.796,�k��,2.5,��
2018/07/18,22:40,0.904,1.302,0.901,1.595,1.146,0.483,0.845,0.797,�k��,2.3,��
2018/07/18,22:50,0.906,1.298,0.901,1.598,1.148,0.485,0.845,0.798,�k��,2.3,��
2018/07/18,23:00,0.903,1.298,0.902,1.598,1.144,0.484,0.845,0.796,�k�k��,3.8,��
2018/07/18,23:10,0.905,1.299,0.900,1.594,1.146,0.483,0.845,0.796,�k�k��,4.7,��
2018/07/18,23:20,0.904,1.295,0.900,1.599,1.146,0.483,0.845,0.797,�k�k��,5.3,��
2018/07/18,23:30,0.905,1.298,0.898,1.597,1.147,0.482,0.847,0.797,�k�k��,4.9,��
2018/07/18,23:40,0.904,1.298,0.902,1.598,1.145,0.484,0.847,0.796,�k�k��,4.5,��
2018/07/18,23:50,0.903,1.299,0.902,1.599,1.145,0.482,0.843,0.796,�k�k��,4.8,��
